STARLINK-1262, 45366

Orbit data source: Space-Track

STARLINK-1262, 45366 is a payload satellite owned by SpaceX/Seattle (US) in LEO that was launched on Wed, 18 Mar 2020 UTC via an FALCON 9 launch vehicle from the Air Force Eastern Test Range (AFETR). Payload-class satellites include a variety of spacecraft equipped with specific instruments for various scientific and technological missions. These include communications satellites like Starlink; space stations such as the ISS; scientific satellites like the Hubble; Earth observation satellites from companies like Planet Labs, Umbra, and HawkEye 360; GPS; miniature CubeSats for education and research; and military/defense satellites.

Loading next visibility...
Identifier
45366, 2020-019G
Orbit
LEO
Country
Flag of USUS
Related business
Manufacturer
SpaceX/Seattle
Mission
Operational Commercial Communications
Bus & Motor
STARLINK, Unknown motor
Mass
260 kg wet, ~248 kg dry
Launch date (UTC)
2020-03-18 (6 years ago)
Launch vehicle
FALCON 9
Launch site
Air Force Eastern Test Range (AFETR)
Object type
Payload
Rocket body
Debris
Shape & HBR
Box + 1 Pan, 10.1 m
Radar Cross Section
13.562 m², Large (>1 m²)

Expand to show TLE details & history
Last TLE update: 14 hours ago

TLE from 14 hours ago
0 STARLINK-1262
1 45366U 20019G   25340.93907325  .00003541  00000-0  25648-3 0  9999
2 45366  53.0555 222.9898 0001647  95.9407 264.1770 15.06402150315753
Epoch: 2025-12-06T22:32Z
TLE epoch observation values (Epoch: 2025-12-06T22:32:15.928Z)
Latitude
-0.00002°
Longitude
168.9638°
Altitude
548.2 km
Speed
7.589 km/s
True Right ascension
14h 51m 57s
True Declination
0° 00' 00"
Sunlit
Object was in daylight at epoch
Visualization orbit readout
Latitude
Unknown
Longitude
Unknown
Altitude
Unknown
Speed
Unknown
Apparent Right ascension
Unknown
Apparent Declination
Unknown
Sunlit
N/A
Visualization observer readout
Local Sidereal Time
11:01:06
Azimuth
Unknown
Elevation
Unknown
Doppler factor
Unknown
Orbital elements
Apogee altitude
548.616 km
Perigee altitude
546.335 km
Semi-major axis
6,925.613 km
Eccentricity
0.00016
Inclination
53.0555°
RAAN
222.9898°
Arg. of periapsis
95.9407°
True anomaly
264.15822°
Mean anomaly
264.177°
Eccentric anomaly
264.16761°
Mean motion
3.76579 °/min
Orbital period
95.6 mins
BSTAR
0.00025648
Loading maneuver chart data...
Computing Atmospheric mass density...

Documentation

Showing up to 5 results
|